Location: Grand Lay
(47.3253°N, 0.9468°E)
Time: 18:59:29
(UTC+00:00)

CZ-4C R/B - Pass Details

Date: 18 January 2026
Orbit: 482 x 1496 km, 63.4° (Epoch: 18 February)

Event Time Altitude Azimuth Distance (km) Brightness Sun altitude
Exits shadow 04:15:15 18° 5° (N) 2,155 4.3 -33.7°
Maximum altitude 04:15:27 18° 7° (N) 2,164 4.4 -33.6°
Drops below altitude 10° 04:19:59 10° 48° (NE) 2,946 5.6 -32.9°
Sets 04:24:04 0° 66° (ENE) 4,119 6.7 -32.2°
